Date,TemperatureHighF,TemperatureAvgF,TemperatureLowF,DewpointHighF,DewpointAvgF,DewpointLowF,HumidityHigh,HumidityAvg,HumidityLow,PressureMaxIn,PressureMinIn,WindSpeedMaxMPH,WindSpeedAvgMPH,GustSpeedMaxMPH,PrecipitationSumIn
2013-4-1,58.0,52.2,44.8,53.5,46.2,40.1,100,82,56,30.05,29.91,12,6,26,0.00
2013-4-2,53.7,45.7,36.8,37.6,27.5,17.7,78,52,24,30.17,30.05,13,7,23,0.00
2013-4-3,57.1,48.0,38.6,35.2,30.8,25.7,65,52,39,30.20,30.11,9,3,18,0.00
2013-4-4,49.5,40.8,36.2,40.5,36.2,29.0,100,86,45,30.18,29.95,12,4,27,0.35
2013-4-5,58.3,46.7,39.0,44.8,39.2,31.0,100,79,37,30.10,29.94,15,5,21,0.00
2013-4-6,64.0,53.4,41.6,38.9,37.0,35.1,79,56,37,30.21,30.11,10,5,20,0.00
2013-4-7,65.1,57.9,51.0,48.3,43.3,35.9,71,58,48,30.23,30.13,11,8,19,0.00
2013-4-8,68.8,62.9,56.4,55.2,52.9,47.1,87,70,58,30.19,30.12,14,7,25,0.00
2013-4-9,74.8,67.1,59.2,58.8,57.0,55.2,89,71,55,30.25,30.15,12,5,20,0.00
2013-4-10,78.0,70.1,62.8,60.0,58.4,56.5,85,68,51,30.19,30.02,13,6,22,0.00
2013-4-11,70.3,65.8,58.4,65.7,59.9,56.6,100,82,70,30.03,29.77,16,9,28,0.45
2013-4-12,59.9,56.6,51.2,59.9,49.5,39.9,100,80,49,29.97,29.73,13,8,29,0.89
2013-4-13,66.2,56.1,47.3,41.4,38.0,31.1,77,54,29,30.08,29.97,13,6,22,0.00
2013-4-14,64.3,55.8,51.8,52.5,42.7,34.9,98,64,39,30.10,29.96,19,7,29,0.02
2013-4-15,71.1,60.0,52.6,61.3,56.2,52.6,100,88,65,30.20,29.98,12,5,19,0.00
2013-4-16,74.4,65.2,58.6,64.4,61.3,58.6,100,88,69,30.31,30.20,16,7,19,0.00
2013-4-17,75.8,66.7,59.4,69.4,62.7,59.4,100,87,66,30.28,30.18,7,4,15,0.98
2013-4-18,71.9,65.3,58.8,64.1,61.2,58.2,100,87,69,30.16,29.99,15,10,27,0.00
2013-4-19,65.8,56.8,41.9,63.9,55.4,36.8,100,95,82,30.03,29.84,22,11,36,0.82
2013-4-20,55.6,44.4,34.2,35.6,31.2,27.1,87,62,40,30.25,30.03,12,7,20,0.00
2013-4-21,61.5,51.8,42.7,40.2,34.1,30.4,67,52,37,30.35,30.26,15,5,17,0.00
2013-4-22,64.4,53.5,43.2,43.7,40.6,38.6,86,63,43,30.33,30.18,10,4,17,0.00
2013-4-23,68.2,56.6,45.4,50.2,40.6,31.4,72,55,43,30.25,30.12,11,4,14,0.00
2013-4-24,64.9,59.0,50.3,60.2,55.0,48.0,100,87,74,30.18,30.11,10,6,17,0.08
2013-4-25,62.2,50.0,39.9,48.9,38.6,27.4,100,72,27,30.34,30.17,8,3,16,0.00
2013-4-26,68.2,54.9,41.7,45.6,36.4,28.7,72,51,33,30.39,30.29,9,3,15,0.00
2013-4-27,55.5,51.8,47.7,52.0,49.2,46.6,100,91,78,30.38,30.17,14,6,22,0.47
2013-4-28,54.4,52.1,49.1,54.0,52.0,49.1,100,100,93,30.21,30.05,15,6,24,1.61
2013-4-29,68.7,58.5,50.8,59.3,53.0,50.8,100,84,56,30.08,29.99,7,1,11,0.00
2013-4-30,71.1,62.0,52.8,59.5,55.0,51.1,95,79,61,30.17,30.02,7,2,12,0.00